Ardabil, Iran

10:18 PM +0330 on October 23, 2019 (GMT +0330)
Ardabil

Weather History for OITL - August, 2019

Change the Weather History Date:

Friday, August 2, 2019

  Actual Average Record
Temperature  
Mean Temperature 66 °F -  
Max Temperature 73 °F - - ()
Min Temperature 60 °F - - ()
Cooling Degree Days 2    
Growing Degree Days 16 (Base 50)    
Moisture  
Dew Point 59 °F    
Average Humidity 71    
Maximum Humidity 88    
Minimum Humidity 57    
Precipitation  
Precipitation 0.00 in - - ()
Sea Level Pressure  
Sea Level Pressure 29.87 in    
Wind  
Wind Speed 17 mph ()    
Max Wind Speed 26 mph    
Max Gust Speed 33 mph    
Visibility 6.1 miles    
Events Fog    
T = Trace of Precipitation, MM = Missing Value Source: Averaged Metar Reports

Daily Weather History Graph

Daily Weather History Graph

Search for Another Location

Airport or City:

Astronomy

Aug. 02, 2019 Rise Set
Actual Time 6:18 AM +0430 8:25 PM +0430
Civil Twilight 5:49 AM +0430 8:55 PM +0430
Nautical Twilight 5:13 AM +0430 9:30 PM +0430
Astronomical Twilight 4:34 AM +0430 10:09 PM +0430
Moon 7:28 AM +0430 (8/2) 9:40 PM +0430 (8/2)
Length of Visible Light 15h 05m
Length of Day
14h 06m
New Moon, 2% of the Moon is Illuminated
Aug 2
New Moon
Aug 7
First Quarter
Aug 15
Full
Aug 23
Last Quarter
Aug 30
New

Hourly Weather History & Observations

Time (+0430) Temp. Dew Point Humidity Pressure Visibility Wind Dir Wind Speed Gust Speed Precip Events Conditions
12:20 AM 62.6 °F 57.2 °F 82% 29.95 in - East 9.2 mph - N/A   Clear
1:20 AM 64.4 °F 59.0 °F 83% 29.95 in - ENE 11.5 mph - N/A   Clear
2:21 AM 64.4 °F 60.8 °F 88% 29.92 in - ENE 16.1 mph - N/A   Clear
3:20 AM 64.4 °F 59.0 °F 83% 29.92 in - ENE 18.4 mph - N/A   Clear
4:20 AM 62.6 °F 55.4 °F 77% 29.92 in 6.2 mi ENE 13.8 mph - N/A   Scattered Clouds
5:20 AM 60.8 °F 55.4 °F 82% 29.92 in 6.2 mi ENE 16.1 mph - N/A   Scattered Clouds
6:21 AM 60.8 °F 57.2 °F 88% 29.92 in 6.2 mi ENE 13.8 mph - N/A   Scattered Clouds
7:24 AM 62.6 °F 57.2 °F 82% 29.92 in 6.2 mi East 18.4 mph - N/A   Scattered Clouds
8:20 AM 66.2 °F 57.2 °F 73% 29.92 in 6.2 mi East 13.8 mph - N/A   Partly Cloudy
8:30 AM 66.2 °F 57.2 °F 73% 29.92 in 6.2 mi East 13.8 mph - N/A   Partly Cloudy
9:25 AM 68.0 °F 55.4 °F 64% 29.89 in 6.2 mi East 18.4 mph - N/A   Partly Cloudy
9:30 AM 68.0 °F 55.4 °F 64% 29.89 in 6.2 mi East 18.4 mph - N/A   Partly Cloudy
10:20 AM 69.8 °F 55.4 °F 60% 29.89 in 6.2 mi ENE 19.6 mph - N/A   Partly Cloudy
10:30 AM 69.8 °F 55.4 °F 60% 29.89 in 6.2 mi ENE 19.6 mph - N/A   Partly Cloudy
11:00 AM 71.6 °F 55.4 °F 57% 29.89 in 6.2 mi East 21.9 mph - N/A   Partly Cloudy
11:22 AM 71.6 °F 57.2 °F 60% 29.89 in 6.2 mi East 21.9 mph - N/A   Partly Cloudy
11:30 AM 71.6 °F 57.2 °F 60% 29.89 in 6.2 mi East 21.9 mph - N/A   Partly Cloudy
12:00 PM 71.6 °F 57.2 °F 60% 29.86 in 6.2 mi ENE 19.6 mph 33.4 mph N/A   Partly Cloudy
12:21 PM 73.4 °F 59.0 °F 61% 29.86 in 6.2 mi ENE 26.5 mph - N/A   Partly Cloudy
12:30 PM 73.4 °F 59.0 °F 61% 29.86 in 6.2 mi ENE 26.5 mph - N/A   Partly Cloudy
1:00 PM 73.4 °F 59.0 °F 61% 29.86 in 6.2 mi ENE 26.5 mph - N/A   Partly Cloudy
1:22 PM 73.4 °F 60.8 °F 65% 29.86 in 6.2 mi East 24.2 mph - N/A   Partly Cloudy
1:30 PM 73.4 °F 60.8 °F 65% 29.86 in 6.2 mi East 24.2 mph - N/A   Partly Cloudy
2:00 PM 73.4 °F 60.8 °F 65% 29.83 in 6.2 mi ENE 26.5 mph - N/A   Partly Cloudy
2:22 PM 73.4 °F 60.8 °F 65% 29.83 in 6.2 mi ENE 26.5 mph - N/A   Scattered Clouds
2:30 PM 73.4 °F 60.8 °F 65% 29.83 in 6.2 mi ENE 26.5 mph - N/A   Scattered Clouds
3:20 PM 71.6 °F 62.6 °F 73% 29.83 in 5.6 mi ENE 21.9 mph - N/A Fog Fog
3:30 PM 71.6 °F 62.6 °F 73% 29.83 in 5.6 mi ENE 21.9 mph - N/A Fog Fog
4:00 PM 69.8 °F 62.6 °F 78% 29.83 in 5.0 mi ENE 19.6 mph - N/A Fog Fog
4:23 PM 69.8 °F 62.6 °F 78% 29.83 in 5.6 mi ENE 21.9 mph - N/A   Mostly Cloudy
5:00 PM 71.6 °F 62.6 °F 73% 29.83 in 6.2 mi ENE 24.2 mph - N/A   Scattered Clouds
5:20 PM 71.6 °F 62.6 °F 73% 29.80 in 6.2 mi East 24.2 mph - N/A Fog Partly Cloudy
6:00 PM 71.6 °F 62.6 °F 73% 29.80 in 6.2 mi ENE 24.2 mph - N/A Fog Partly Cloudy
6:22 PM 69.8 °F 60.8 °F 73% 29.80 in 6.2 mi ENE 24.2 mph - N/A Fog Partly Cloudy
6:30 PM 69.8 °F 60.8 °F 73% 29.80 in 6.2 mi ENE 24.2 mph - N/A Fog Partly Cloudy
7:24 PM 69.8 °F 60.8 °F 73% 29.83 in 6.2 mi East 19.6 mph - N/A   Partly Cloudy
7:30 PM 69.8 °F 60.8 °F 73% 29.83 in 6.2 mi East 19.6 mph - N/A   Partly Cloudy
8:21 PM 66.2 °F 59.0 °F 78% 29.83 in 6.2 mi East 18.4 mph - N/A Fog Partly Cloudy
9:23 PM 66.2 °F 57.2 °F 73% 29.86 in 6.2 mi ENE 16.1 mph - N/A   Partly Cloudy
10:21 PM 66.2 °F 57.2 °F 73% 29.86 in 6.2 mi East 13.8 mph - N/A   Partly Cloudy
11:21 PM 64.4 °F 59.0 °F 83% 29.89 in 6.2 mi East 11.5 mph - N/A   Partly Cloudy